Location: Spangle
(47.4302°N, 117.3779°W)
Time: 10:28:36
(UTC+00:00)

ACS3 Solar Sail - Visible Passes

Search period start: 18 April 2026 00:00
Search period end: 28 April 2026 00:00
Orbit: 872 x 975 km, 97.2° (Epoch: 17 April)

Date Brightness Start Highest point End Pass type
(mag) Time Alt. Az. Time Alt. Az. Time Alt. Az.
18 Apr 3.7 07:30:29 10° NE 07:34:00 16° E 07:34:00 16° E visible
18 Apr 1.6 09:11:10 10° NNE 09:17:14 90° N 09:17:33 82° SSW visible
18 Apr 3.4 10:54:55 10° NNW 10:58:51 18° WNW 11:01:06 15° W visible
19 Apr 3.5 07:39:25 10° NE 07:43:37 19° E 07:43:37 19° E visible
19 Apr 1.6 09:20:36 10° N 09:26:39 77° WNW 09:27:10 72° WSW visible
19 Apr 3.6 11:04:41 10° NNW 11:08:06 16° NW 11:10:42 12° W visible
20 Apr 3.3 07:48:23 10° NE 07:53:07 23° E 07:53:09 23° E visible
20 Apr 1.7 09:29:57 10° N 09:35:57 66° WNW 09:36:42 60° WSW visible
20 Apr 3.7 11:14:29 10° NNW 11:17:14 13° NW 11:20:00 10° W visible
21 Apr 3.1 07:57:23 10° NNE 08:02:29 27° E 08:02:36 27° E visible
21 Apr 2.0 09:39:15 10° N 09:45:09 56° WNW 09:46:08 50° WSW visible
21 Apr 3.8 11:24:29 10° NW 11:26:15 11° NW 11:28:04 10° WNW visible
22 Apr 2.8 08:06:20 10° NNE 08:11:44 32° E 08:11:58 32° E visible
22 Apr 2.2 09:48:29 10° N 09:54:15 47° WNW 09:55:29 42° WSW visible
23 Apr 2.6 08:15:15 10° NNE 08:20:54 38° E 08:21:14 38° ESE visible
23 Apr 2.4 09:57:39 10° N 10:03:15 41° WNW 10:04:46 35° W visible
24 Apr 2.3 08:24:08 10° NNE 08:29:57 45° E 08:30:26 44° ESE visible
24 Apr 2.7 10:06:45 10° N 10:12:09 35° WNW 10:13:56 29° W visible
25 Apr 2.1 08:32:57 10° NNE 08:38:55 53° E 08:39:32 51° ESE visible
25 Apr 2.9 10:15:48 10° N 10:20:58 30° WNW 10:23:02 24° W visible
26 Apr 4.0 07:03:47 10° ENE 07:04:15 10° E 07:04:43 10° E visible
26 Apr 1.9 08:41:43 10° NNE 08:47:47 63° E 08:48:32 58° SE visible
26 Apr 3.1 10:24:47 10° N 10:29:40 26° WNW 10:32:02 20° W visible
27 Apr 3.9 07:10:42 10° ENE 07:13:11 12° E 07:13:58 12° E visible
27 Apr 1.7 08:50:25 10° NNE 08:56:32 74° E 08:57:28 62° SSE visible
27 Apr 3.2 10:33:43 10° N 10:38:16 23° WNW 10:40:57 17° W visible
